• In Österreich
  • Länderverzeichnis
  • Für 7 Tage
  • Wassertemperatur
  • Satellitenkarten
  • Wetterkarte
  • News
  • Widgets
  • user-avatar
    Anmelden

    Stündliche Wetter Satif

    Heute, 18 September, Dienstag

    Zeit Temperatur Niederschläge Wind Luftdruck Luftfeuchtigkeit
    00:00 +22°C° 0 mm 1 m/S 676 mmHg 62%
    01:00 +22°C° 0.2 mm 1 m/S 676 mmHg 63%
    02:00 +22°C° 0.2 mm 1 m/S 676 mmHg 63%
    03:00 +21°C° 0.2 mm 2 m/S 676 mmHg 64%
    04:00 +21°C° 0.1 mm 2 m/S 676 mmHg 63%
    05:00 +21°C° 0.1 mm 2 m/S 675 mmHg 62%
    06:00 +21°C° 0 mm 3 m/S 675 mmHg 62%
    07:00 +22°C° 0 mm 4 m/S 676 mmHg 55%
    08:00 +25°C° 0 mm 5 m/S 676 mmHg 49%
    09:00 +26°C° 0 mm 6 m/S 676 mmHg 42%
    10:00 +27°C° 0 mm 6 m/S 676 mmHg 39%
    11:00 +28°C° 0 mm 7 m/S 676 mmHg 36%
    12:00 +28°C° 0 mm 7 m/S 677 mmHg 36%
    13:00 +28°C° 0 mm 7 m/S 676 mmHg 36%
    14:00 +28°C° 0 mm 6 m/S 676 mmHg 36%
    15:00 +28°C° 0 mm 5 m/S 676 mmHg 37%
    16:00 +27°C° 0 mm 5 m/S 676 mmHg 40%
    17:00 +26°C° 0 mm 4 m/S 675 mmHg 43%
    18:00 +26°C° 0 mm 4 m/S 675 mmHg 46%
    19:00 +25°C° 0.2 mm 3 m/S 675 mmHg 48%
    20:00 +24°C° 0.2 mm 3 m/S 676 mmHg 50%
    21:00 +24°C° 0.2 mm 3 m/S 676 mmHg 52%
    22:00 +23°C° 0.3 mm 2 m/S 676 mmHg 53%
    23:00 +23°C° 0.3 mm 2 m/S 676 mmHg 54%

    Morgen, 19 September, Mittwoch

    Zeit Temperatur Niederschläge Wind Luftdruck Luftfeuchtigkeit
    00:00 +23°C° 0.3 mm 2 m/S 676 mmHg 55%
    01:00 +21°C° 0.1 mm 2 m/S 675 mmHg 55%
    02:00 +21°C° 0.1 mm 2 m/S 675 mmHg 55%
    03:00 +21°C° 0.1 mm 2 m/S 675 mmHg 56%
    04:00 +21°C° 0.1 mm 2 m/S 675 mmHg 56%
    05:00 +21°C° 0.1 mm 2 m/S 675 mmHg 57%
    06:00 +22°C° 0.1 mm 1 m/S 675 mmHg 57%
    07:00 +23°C° 0 mm 2 m/S 676 mmHg 52%
    08:00 +24°C° 0 mm 2 m/S 676 mmHg 47%
    09:00 +26°C° 0 mm 2 m/S 677 mmHg 43%
    10:00 +27°C° 0 mm 2 m/S 677 mmHg 40%
    11:00 +28°C° 0 mm 3 m/S 677 mmHg 37%
    12:00 +28°C° 0 mm 3 m/S 677 mmHg 35%
    13:00 +28°C° 0 mm 3 m/S 677 mmHg 36%
    14:00 +28°C° 0 mm 3 m/S 677 mmHg 37%
    15:00 +28°C° 0 mm 3 m/S 676 mmHg 38%
    16:00 +27°C° 0 mm 3 m/S 676 mmHg 42%
    17:00 +26°C° 0 mm 3 m/S 676 mmHg 47%
    18:00 +25°C° 0 mm 2 m/S 676 mmHg 51%
    19:00 +24°C° 0.2 mm 2 m/S 676 mmHg 55%
    20:00 +24°C° 0.2 mm 1 m/S 676 mmHg 58%
    21:00 +23°C° 0.2 mm 1 m/S 676 mmHg 62%
    22:00 +23°C° 0 mm 1 m/S 676 mmHg 63%
    23:00 +22°C° 0 mm 1 m/S 676 mmHg 65%

    übermorgen, 20 September, Donnerstag

    Zeit Temperatur Niederschläge Wind Luftdruck Luftfeuchtigkeit
    00:00 +20°C° 0 mm 0 m/S 675 mmHg 66%
    01:00 +22°C° 0 mm 1 m/S 675 mmHg 68%
    02:00 +21°C° 0 mm 1 m/S 675 mmHg 69%
    03:00 +21°C° 0 mm 1 m/S 675 mmHg 71%
    04:00 +21°C° 0 mm 1 m/S 674 mmHg 72%
    05:00 +20°C° 0 mm 1 m/S 674 mmHg 73%
    06:00 +20°C° 0 mm 1 m/S 674 mmHg 74%
    07:00 +21°C° 0 mm 1 m/S 675 mmHg 68%
    08:00 +22°C° 0 mm 1 m/S 675 mmHg 63%
    09:00 +23°C° 0 mm 2 m/S 676 mmHg 57%
    10:00 +24°C° 0 mm 2 m/S 676 mmHg 52%
    11:00 +25°C° 0 mm 2 m/S 676 mmHg 47%
    12:00 +26°C° 0 mm 2 m/S 676 mmHg 42%
    13:00 +26°C° 0.4 mm 3 m/S 675 mmHg 43%
    14:00 +26°C° 0.4 mm 3 m/S 675 mmHg 44%
    15:00 +26°C° 0.4 mm 3 m/S 675 mmHg 44%
    16:00 +25°C° 0.2 mm 3 m/S 675 mmHg 51%
    17:00 +23°C° 0.2 mm 4 m/S 674 mmHg 57%
    18:00 +22°C° 0.2 mm 4 m/S 674 mmHg 64%
    19:00 +21°C° 0.1 mm 3 m/S 674 mmHg 67%
    20:00 +21°C° 0.1 mm 3 m/S 674 mmHg 71%
    21:00 +20°C° 0.1 mm 2 m/S 674 mmHg 74%
    22:00 +19°C° 0 mm 2 m/S 674 mmHg 76%
    23:00 +19°C° 0 mm 2 m/S 674 mmHg 78%

    21 September, Freitag

    Zeit Temperatur Niederschläge Wind Luftdruck Luftfeuchtigkeit
    00:00 +19°C° 0 mm 2 m/S 674 mmHg 80%
    01:00 +18°C° 0 mm 2 m/S 673 mmHg 81%
    02:00 +19°C° 0 mm 1 m/S 673 mmHg 82%
    03:00 +19°C° 0 mm 1 m/S 673 mmHg 84%
    04:00 +19°C° 0 mm 1 m/S 673 mmHg 85%
    05:00 +18°C° 0 mm 1 m/S 673 mmHg 85%
    06:00 +18°C° 0 mm 1 m/S 673 mmHg 86%
    07:00 +19°C° 0 mm 1 m/S 674 mmHg 78%
    08:00 +21°C° 0 mm 1 m/S 674 mmHg 69%
    09:00 +21°C° 0 mm 2 m/S 675 mmHg 61%
    10:00 +23°C° 0 mm 2 m/S 675 mmHg 55%
    11:00 +24°C° 0 mm 2 m/S 675 mmHg 49%
    12:00 +25°C° 0 mm 2 m/S 675 mmHg 43%
    13:00 +25°C° 0 mm 3 m/S 675 mmHg 43%
    14:00 +25°C° 0 mm 3 m/S 675 mmHg 44%
    15:00 +25°C° 0 mm 4 m/S 674 mmHg 44%
    16:00 +23°C° 0 mm 4 m/S 674 mmHg 48%
    17:00 +22°C° 0 mm 3 m/S 674 mmHg 53%
    18:00 +21°C° 0 mm 3 m/S 674 mmHg 57%
    19:00 +21°C° 0 mm 3 m/S 675 mmHg 61%
    20:00 +20°C° 0 mm 2 m/S 675 mmHg 64%
    21:00 +20°C° 0 mm 2 m/S 675 mmHg 67%
    22:00 +19°C° 0 mm 2 m/S 675 mmHg 68%
    23:00 +19°C° 0 mm 2 m/S 675 mmHg 70%

    22 September, Samstag

    Zeit Temperatur Niederschläge Wind Luftdruck Luftfeuchtigkeit
    00:00 +19°C° 0 mm 1 m/S 675 mmHg 71%
    01:00 +19°C° 0 mm 1 m/S 675 mmHg 72%
    02:00 +18°C° 0 mm 2 m/S 675 mmHg 73%
    03:00 +18°C° 0 mm 2 m/S 675 mmHg 73%
    04:00 +17°C° 0 mm 2 m/S 675 mmHg 74%
    05:00 +17°C° 0 mm 2 m/S 675 mmHg 74%
    06:00 +17°C° 0 mm 2 m/S 675 mmHg 75%
    07:00 +18°C° 0 mm 2 m/S 676 mmHg 70%
    08:00 +20°C° 0 mm 2 m/S 677 mmHg 65%
    09:00 +21°C° 0 mm 3 m/S 677 mmHg 61%
    10:00 +22°C° 0 mm 3 m/S 678 mmHg 56%
    11:00 +24°C° 0 mm 3 m/S 678 mmHg 52%
    12:00 +25°C° 0 mm 3 m/S 678 mmHg 48%
    13:00 +25°C° 0 mm 3 m/S 678 mmHg 46%
    14:00 +26°C° 0 mm 4 m/S 678 mmHg 45%
    15:00 +26°C° 0 mm 4 m/S 677 mmHg 44%
    16:00 +25°C° 0 mm 4 m/S 677 mmHg 48%
    17:00 +24°C° 0 mm 3 m/S 678 mmHg 51%
    18:00 +22°C° 0 mm 3 m/S 678 mmHg 55%
    19:00 +22°C° 0 mm 3 m/S 678 mmHg 59%
    20:00 +21°C° 0 mm 2 m/S 678 mmHg 63%
    21:00 +20°C° 0 mm 2 m/S 678 mmHg 67%
    22:00 +21°C° 0 mm 1 m/S 678 mmHg 69%
    23:00 +20°C° 0 mm 1 m/S 678 mmHg 70%

    23 September, Sonntag

    Zeit Temperatur Niederschläge Wind Luftdruck Luftfeuchtigkeit
    00:00 +20°C° 0 mm 1 m/S 677 mmHg 72%
    01:00 +20°C° 0 mm 1 m/S 677 mmHg 72%
    02:00 +19°C° 0 mm 1 m/S 677 mmHg 72%
    03:00 +19°C° 0 mm 1 m/S 677 mmHg 71%
    04:00 +17°C° 0 mm 0 m/S 677 mmHg 70%
    05:00 +17°C° 0 mm 0 m/S 677 mmHg 68%
    06:00 +17°C° 0 mm 0 m/S 677 mmHg 67%
    07:00 +19°C° 0 mm 0 m/S 677 mmHg 57%
    08:00 +20°C° 0 mm 0 m/S 678 mmHg 48%
    09:00 +22°C° 0 mm 0 m/S 678 mmHg 39%
    10:00 +25°C° 0 mm 1 m/S 678 mmHg 35%
    11:00 +26°C° 0 mm 2 m/S 678 mmHg 31%
    12:00 +27°C° 0 mm 2 m/S 678 mmHg 27%
    13:00 +28°C° 0 mm 2 m/S 678 mmHg 28%
    14:00 +28°C° 0 mm 3 m/S 678 mmHg 28%
    15:00 +28°C° 0 mm 3 m/S 677 mmHg 29%
    16:00 +27°C° 0 mm 2 m/S 677 mmHg 33%
    17:00 +26°C° 0 mm 2 m/S 677 mmHg 37%
    18:00 +25°C° 0 mm 1 m/S 677 mmHg 41%
    19:00 +25°C° 0 mm 1 m/S 677 mmHg 44%
    20:00 +24°C° 0 mm 1 m/S 677 mmHg 47%
    21:00 +22°C° 0 mm 0 m/S 677 mmHg 50%
    22:00 +21°C° 0 mm 0 m/S 676 mmHg 50%
    23:00 +21°C° 0 mm 0 m/S 676 mmHg 51%
    Mehr zeigen